User: anonymous   Login
Location: Beadle
(51.4667°N, 109.0000°W)
Time: 11:31:38
(UTC+00:00)
Language:

PEGASUS DEB - Orbit

View from above orbital plane
View from above orbital plane
View from above satellite
View from above satellite

Ground track
Ground track

The orbit data is extracted from the following two-line orbital elements,

1 39317U 94029AFC 22333.62985712  .00041139  00000-0  10787-2 0  9993
2 39317  81.9465 211.9900 0040804  69.1738 291.3868 15.37613093113594
Epoch (UTC): 29 November 2022 15:06:59
Eccentricity: 0.0040804
inclination: 81.9465°
perigee height: 425 km
apogee height: 481 km
right ascension of ascending node: 211.9900°
argument of perigee: 69.1738°
revolutions per day: 15.37613093
mean anomaly at epoch: 291.3868°
orbit number at epoch: 11359

The dashed part of the orbit path shows where the satellite is in the earth's shadow,  

DLR